Theta_e
319 318 319 323 322 325 327 331 333 333 331 320 317 320 318 319 321 320 320 320 321 320 320 320 320 320 319 319 319 320 321 321 324 328 326 331 337 333 337 343 344 345 344 342 340 340 342 344 344 344 344 344 343 341 339 338 338 337 335 334 337 339 340 339 339 339 338 337 337 338 338 338 339 338 338 337 338 337 337 337 336 336 332 324 319 317 313 311 308 307 308 311 315 316 315 319 325
320 320 320 323 322 326 335 337 332 327 325 316 314 318 316 319 321 319 320 320 320 320 321 322 321 321 320 319 319 324 324 323 326 330 331 332 333 331 337 342 345 346 343 343 340 339 342 344 344 344 344 344 344 342 340 339 338 338 335 335 336 337 339 339 339 339 338 336 335 337 337 338 339 338 337 337 337 337 337 337 335 335 330 325 323 319 314 310 307 305 307 311 314 314 313 317 322
321 323 322 323 325 327 336 336 327 324 320 314 312 316 317 318 320 318 320 319 319 320 321 321 320 319 320 321 319 322 323 325 327 329 331 331 330 331 336 341 344 345 343 343 340 338 341 343 343 344 344 344 344 342 341 340 339 338 336 336 337 337 338 339 338 338 337 334 334 335 336 337 338 338 337 337 336 336 336 335 334 333 329 327 325 321 315 311 307 302 303 307 309 309 308 311 316
321 323 323 325 332 332 334 332 330 329 318 316 315 314 319 318 319 319 320 320 320 321 319 320 319 317 319 321 318 321 321 324 329 329 330 331 332 332 336 341 343 345 344 343 341 337 340 343 343 343 344 344 344 343 342 341 339 338 337 336 336 337 337 337 337 337 335 333 335 335 335 336 337 337 337 336 336 336 336 335 333 331 329 329 328 324 317 310 306 301 300 301 302 303 302 304 306
320 322 323 324 334 333 332 329 332 330 317 321 318 313 319 318 320 319 319 320 319 320 319 319 318 317 320 321 320 323 322 321 328 332 332 332 334 333 337 341 342 345 344 343 341 337 337 342 343 343 344 344 344 343 343 341 340 339 338 336 335 336 337 337 336 336 334 334 337 336 335 336 337 337 336 336 335 335 334 333 331 329 329 329 329 326 320 312 306 301 299 299 300 300 300 301 301
321 322 324 324 329 327 332 327 321 321 316 324 319 313 319 317 320 319 318 318 317 319 318 318 318 320 322 322 323 326 326 322 328 333 332 334 337 336 337 340 343 344 344 343 340 339 339 339 341 343 344 344 344 343 343 341 340 339 338 335 333 335 337 337 336 335 333 334 336 335 334 336 337 336 335 335 335 335 333 331 329 329 329 330 329 327 323 314 307 301 300 299 299 300 300 300 300
322 324 328 329 330 328 334 326 317 320 318 320 318 316 318 317 318 318 318 316 316 317 317 318 317 321 321 322 326 329 329 326 330 333 332 335 338 338 337 338 341 342 343 344 341 342 342 339 339 341 343 344 344 344 342 341 340 339 338 336 333 334 335 336 335 333 333 334 336 335 335 335 336 336 335 335 335 334 333 330 329 329 330 330 329 327 323 316 309 302 300 300 300 300 300 300 300
322 325 331 334 335 334 332 323 319 324 320 317 318 319 318 318 318 316 318 318 317 316 317 318 317 322 318 321 328 327 329 331 332 333 334 336 339 339 338 339 340 342 343 344 343 344 343 341 339 338 342 344 344 344 343 342 340 339 338 336 334 333 334 335 333 331 332 335 337 336 335 335 335 335 335 335 334 334 333 331 330 330 330 329 328 327 322 317 311 304 300 300 300 300 301 301 301
322 323 330 334 330 329 326 320 318 321 320 318 318 319 319 320 319 317 317 317 317 317 318 317 318 323 318 319 322 320 325 330 333 333 332 334 339 340 339 341 342 344 344 344 344 344 343 343 340 338 341 343 343 343 343 342 341 339 338 337 335 334 334 335 331 330 332 334 337 336 336 336 335 335 335 335 335 333 332 332 331 330 330 329 328 326 322 318 313 306 301 300 300 300 301 301 301
326 322 327 335 328 321 320 318 319 319 318 319 317 318 319 318 319 318 317 317 318 317 317 317 318 321 317 317 317 316 320 326 332 333 331 330 337 340 340 343 343 344 344 343 343 343 343 342 341 340 340 342 344 343 343 342 341 340 339 338 336 334 334 335 332 331 333 334 336 337 337 336 335 335 335 335 334 333 333 333 331 330 329 329 328 326 323 319 314 307 301 300 300 301 301 301 301
330 326 330 335 326 319 319 320 319 319 318 318 318 318 318 319 319 317 318 317 318 318 317 317 316 317 316 316 315 313 314 319 328 332 332 329 330 337 341 342 342 343 343 342 341 341 341 340 340 341 341 342 343 343 343 342 341 341 339 338 337 334 334 335 333 332 334 334 335 337 337 336 336 336 335 335 334 332 333 332 331 330 329 329 327 325 322 319 315 307 300 299 299 300 301 301 301
329 331 335 326 320 320 322 323 319 319 319 319 318 317 318 318 319 317 318 317 317 318 317 317 315 316 317 316 314 312 312 314 322 331 334 332 327 331 337 340 342 341 340 341 340 340 339 338 338 340 342 342 342 342 342 342 341 341 340 339 337 335 334 335 334 333 334 334 335 337 338 337 336 336 335 335 334 332 332 332 332 330 330 328 327 325 322 319 317 311 304 299 299 300 301 301 301
327 329 334 321 322 325 323 323 320 322 319 318 319 318 318 317 318 316 318 317 317 319 316 316 315 317 318 316 315 313 313 312 319 330 333 333 328 326 329 333 338 340 339 338 339 340 339 338 338 339 342 341 341 342 341 341 341 341 341 339 338 336 335 335 335 334 332 334 336 336 337 337 336 336 335 335 334 332 332 333 332 331 330 328 326 326 323 320 319 316 310 303 299 300 301 301 302
324 326 331 324 325 325 325 323 320 324 318 317 319 317 318 316 318 317 319 318 317 319 315 315 315 317 317 314 317 316 314 312 317 329 332 331 328 325 325 328 333 337 338 337 337 338 339 339 339 339 340 341 341 343 341 340 341 341 341 340 338 337 336 335 335 335 333 333 335 336 337 337 337 336 335 335 333 332 332 332 332 331 330 328 326 326 324 322 320 318 315 308 301 299 300 301 302
324 328 331 325 322 319 323 323 324 327 318 318 318 316 319 316 318 319 320 319 316 317 315 314 314 317 317 316 319 315 314 313 318 329 331 329 328 326 323 326 331 334 335 335 335 336 337 339 340 339 339 339 339 341 340 339 341 340 341 340 339 338 337 336 335 335 333 333 333 334 336 336 337 336 335 335 333 332 332 332 331 330 329 328 326 325 324 322 320 318 315 312 306 300 299 301 301
325 335 332 322 319 316 318 320 324 325 318 319 318 317 319 316 318 318 317 317 317 316 315 316 314 315 317 317 316 313 315 316 319 328 330 330 331 328 325 326 328 331 332 332 333 333 336 337 339 339 339 339 338 338 338 338 339 340 340 340 339 338 337 336 335 335 334 333 332 333 335 336 336 336 335 335 333 332 332 332 331 330 329 328 326 325 324 323 321 319 317 315 312 305 299 298 300
336 343 331 321 320 316 317 319 321 322 319 319 317 317 319 316 317 316 315 317 317 315 314 314 313 313 314 315 314 313 316 316 319 326 327 329 328 325 324 324 323 325 325 326 328 330 333 335 337 338 338 338 339 338 338 338 338 339 340 339 340 339 338 337 335 334 334 332 331 332 333 334 335 336 336 335 333 332 332 332 331 330 328 328 327 325 325 324 322 321 320 318 316 312 305 300 298
341 340 325 319 320 316 317 320 321 321 320 318 317 318 319 317 317 315 315 316 315 315 314 313 312 312 312 313 314 315 316 316 318 320 320 321 320 318 318 319 319 319 319 320 322 324 329 332 334 336 336 336 337 339 339 339 339 340 339 339 339 339 338 338 336 334 334 333 331 331 332 332 332 334 335 335 334 333 332 332 331 330 328 328 327 326 326 325 323 322 322 321 319 317 313 308 302
329 332 325 318 319 316 316 320 319 319 319 318 318 319 319 317 317 316 315 316 315 317 315 313 314 313 313 313 314 316 316 316 317 316 317 316 316 316 316 317 318 317 318 319 320 321 323 328 332 334 335 336 336 338 339 340 340 340 339 339 339 338 339 338 337 335 334 334 332 331 330 330 331 333 335 335 334 333 332 331 331 330 328 328 327 327 326 325 324 323 322 321 320 318 316 314 310
323 330 327 318 318 316 315 320 318 318 318 319 318 317 317 316 316 315 315 316 318 319 316 314 315 314 314 313 313 315 315 315 315 316 316 315 315 315 315 316 316 317 318 319 319 319 320 323 329 332 333 335 336 336 338 339 339 339 339 339 339 338 338 338 337 336 335 335 334 333 332 332 334 335 335 335 334 333 332 332 331 330 329 328 327 327 327 325 324 323 321 320 319 317 316 315 314
322 326 324 317 318 316 316 319 319 318 318 318 318 316 317 316 316 317 315 317 318 317 315 316 315 314 315 313 312 314 314 314 314 315 315 314 314 314 315 315 316 317 317 318 318 318 318 319 323 329 332 334 336 336 336 337 337 338 338 338 339 338 338 338 337 337 337 336 335 335 334 335 335 335 335 335 334 333 332 332 331 331 329 328 328 327 326 325 325 323 321 321 319 317 316 315 314
320 320 319 317 317 316 316 319 320 318 318 319 317 316 316 316 316 317 316 318 320 317 314 315 314 313 314 313 312 313 312 313 313 313 314 314 314 314 315 315 316 316 316 316 316 317 317 317 318 323 330 333 334 336 336 336 336 337 338 338 338 338 338 337 338 338 337 336 336 335 336 336 335 335 335 334 334 333 333 332 331 331 330 329 329 327 326 325 324 322 321 321 319 318 317 316 314
320 318 317 319 318 317 317 319 320 318 318 318 317 315 316 317 316 318 321 319 317 315 313 313 313 312 312 312 312 312 312 312 312 313 313 313 313 313 314 315 315 315 315 314 315 316 316 318 318 318 325 331 333 335 335 335 335 336 338 338 339 339 339 337 336 336 336 336 336 335 336 335 335 334 335 334 333 333 333 332 332 331 330 329 329 328 326 326 324 322 322 321 320 318 317 316 315
321 319 318 320 318 318 319 320 319 318 318 316 316 316 316 317 315 319 323 316 313 312 310 310 310 310 311 312 311 311 311 312 313 313 313 313 313 312 313 314 313 313 314 314 315 316 316 319 320 318 321 329 333 334 334 334 335 335 337 339 339 338 338 336 335 335 336 335 334 334 335 333 334 334 334 334 332 333 333 332 332 330 329 329 329 328 326 325 324 322 322 321 320 318 317 317 316
321 319 318 320 318 318 321 321 318 318 318 316 316 316 318 318 315 318 320 312 312 311 309 309 309 310 311 312 311 310 310 311 312 312 311 312 312 313 313 314 314 313 314 315 316 317 317 319 322 319 320 329 331 331 332 333 334 335 337 337 337 337 336 335 335 335 335 334 334 334 334 333 333 333 333 332 331 332 332 331 330 330 330 329 329 328 325 325 324 322 322 321 320 318 317 318 317
318 318 318 319 318 318 320 320 319 318 318 317 316 317 319 318 314 316 315 311 312 311 311 311 311 312 312 312 311 309 310 310 311 310 310 310 310 312 314 314 314 314 314 315 316 317 318 320 322 320 321 327 328 328 332 333 334 335 336 335 335 335 334 333 334 335 334 334 334 333 334 334 333 332 331 331 331 331 331 330 329 329 330 329 329 327 325 324 323 322 321 321 319 318 318 317 317
317 318 318 319 319 318 318 319 319 318 317 317 317 317 318 316 315 316 313 310 312 312 312 313 313 313 312 312 310 309 310 309 310 309 309 309 308 311 314 314 315 315 315 315 316 317 318 320 324 323 324 326 326 329 331 331 332 333 333 333 333 333 332 332 333 333 333 333 333 332 333 333 333 332 331 331 331 331 330 329 328 329 329 329 328 326 324 323 322 321 321 320 319 318 318 317 317
317 318 318 320 320 318 318 318 319 317 316 317 317 317 316 314 315 318 314 311 311 312 313 313 313 313 312 313 311 308 309 308 309 309 308 308 307 309 312 313 314 314 315 315 316 317 318 321 324 326 326 327 328 330 331 330 331 330 330 330 330 330 331 332 331 331 331 331 331 331 331 331 331 331 331 331 330 330 329 328 328 328 327 327 326 325 323 323 322 321 320 319 319 318 318 317 317
317 317 318 322 322 320 319 317 318 318 316 317 316 316 318 316 315 316 312 310 312 312 313 313 313 313 313 313 312 309 307 308 309 308 308 307 308 310 311 313 314 314 314 315 317 318 319 321 324 326 326 328 328 329 330 329 329 329 329 329 329 329 330 330 330 329 330 329 329 329 329 329 329 330 330 330 329 329 329 328 328 326 325 325 325 324 323 322 321 321 320 319 319 319 318 316 316
318 316 317 322 323 324 322 316 317 318 316 317 315 318 325 322 315 313 311 310 312 312 313 313 313 313 312 312 313 310 307 307 308 307 307 306 308 312 313 313 314 314 314 315 317 318 319 321 323 324 325 327 328 328 329 328 328 327 327 328 328 328 329 328 327 327 327 326 326 325 326 326 327 327 327 327 327 327 327 327 326 324 323 323 323 323 322 322 321 320 319 319 318 317 316 314 314
319 318 321 322 321 329 326 315 318 318 314 316 316 318 326 324 315 311 311 311 312 313 313 312 313 312 312 313 313 311 307 306 307 307 306 305 307 312 313 314 314 313 314 315 316 316 319 321 322 323 323 326 327 326 327 327 326 326 326 326 327 327 326 326 325 324 324 323 323 323 324 324 324 324 324 325 325 325 325 324 323 321 320 321 321 321 321 320 319 319 318 318 317 315 314 312 311
319 319 330 328 320 332 329 314 318 318 314 314 316 319 322 321 315 311 311 312 312 313 312 312 313 312 312 312 311 310 307 306 306 306 305 305 307 311 313 313 313 312 312 313 314 314 317 319 320 322 322 323 325 325 325 324 324 325 325 323 324 324 324 323 322 322 323 322 322 322 322 322 322 321 321 322 322 322 321 320 319 319 319 320 319 318 318 316 315 314 312 313 313 312 311 309 308
326 320 330 330 321 326 324 315 317 318 316 313 314 320 321 320 316 311 311 313 313 313 313 312 312 312 312 311 310 309 307 306 305 304 305 305 307 310 312 312 312 311 311 311 312 313 315 316 317 319 319 320 321 322 321 320 321 323 322 320 320 320 320 320 318 319 320 320 320 319 319 320 319 318 318 318 319 318 318 317 316 316 316 316 315 314 312 309 308 307 304 303 305 306 306 305 305
332 322 322 326 323 322 321 320 318 316 316 314 314 316 318 319 316 312 312 313 313 313 313 312 311 311 311 310 309 309 308 307 305 304 304 305 306 310 311 311 311 310 310 311 311 312 312 313 313 315 316 316 317 318 316 316 318 318 317 316 316 316 315 314 314 315 316 316 316 315 316 316 316 316 315 316 316 315 315 314 313 313 313 312 310 307 303 299 299 298 297 297 298 301 302 304 305
332 328 324 325 324 322 321 322 319 316 316 315 315 315 315 317 316 313 311 312 312 313 312 312 311 311 311 310 309 309 307 307 305 303 304 305 306 309 310 311 310 310 309 310 310 310 310 311 310 311 313 313 315 314 312 314 316 314 313 312 312 311 310 310 311 312 312 314 313 312 312 312 312 312 312 312 313 312 311 311 310 310 309 308 306 302 298 295 295 294 294 293 294 296 299 302 304
331 331 330 328 324 323 323 321 319 316 316 317 317 316 315 315 317 316 312 312 312 312 313 313 311 311 310 310 309 308 307 306 304 303 304 304 306 308 309 310 309 309 309 308 309 308 308 308 308 308 308 310 312 313 311 311 312 310 308 309 308 306 305 307 308 309 310 310 309 309 309 308 307 308 308 308 308 308 308 307 306 306 307 306 304 302 299 297 295 294 294 293 293 294 296 301 304
324 324 325 326 324 323 323 321 318 316 317 319 318 316 317 316 318 318 312 312 312 312 313 314 312 311 310 310 310 308 306 305 304 304 304 304 305 307 309 309 309 308 308 307 308 307 306 306 307 307 306 306 308 311 310 309 309 307 305 305 303 302 303 305 305 305 307 306 306 307 306 305 305 305 305 305 304 304 304 303 303 303 304 304 303 302 300 296 294 294 293 292 293 293 293 297 301
320 321 321 323 324 323 323 319 317 317 317 322 321 317 317 318 318 317 313 312 313 312 313 314 312 311 310 310 310 308 306 304 303 303 303 304 304 306 308 309 308 308 307 306 306 306 305 305 306 306 306 305 305 307 308 307 307 307 305 303 302 301 302 303 303 302 303 303 304 305 304 303 303 302 301 300 300 299 299 300 301 301 302 302 301 299 296 294 293 293 292 291 291 292 291 292 296
321 322 320 323 325 324 323 320 317 316 318 324 326 320 319 320 318 317 315 313 313 312 312 313 312 311 310 310 310 307 306 305 304 303 303 303 303 305 307 307 308 308 306 306 305 305 305 305 304 304 305 305 304 305 306 306 304 305 305 303 303 302 299 299 300 299 300 301 300 300 300 299 298 297 295 295 294 294 294 294 295 296 297 297 296 294 292 291 290 291 291 290 290 290 290 290 292
324 324 321 325 326 322 323 323 318 317 318 321 323 320 319 318 318 319 317 314 315 315 314 315 313 311 310 310 309 307 306 305 305 304 302 302 302 304 306 306 307 307 306 305 305 304 304 304 304 304 304 304 304 304 305 305 303 301 301 301 301 300 296 296 296 296 297 297 296 295 295 294 294 293 292 292 292 291 291 291 291 291 291 291 291 290 289 289 289 289 290 290 290 289 289 290 290
326 327 324 325 325 322 323 322 319 320 322 320 319 321 325 322 319 319 318 315 316 316 316 317 314 311 311 310 308 307 306 304 305 305 302 301 302 303 304 305 306 306 305 305 305 304 303 304 305 305 304 304 304 304 304 304 303 301 299 297 297 295 293 293 293 292 292 292 292 292 291 291 291 291 291 291 291 291 290 290 290 290 290 290 290 289 289 289 289 289 289 289 289 289 289 289 289
325 328 325 323 323 323 323 323 322 325 329 324 320 327 337 334 324 321 319 316 316 315 315 316 314 312 312 310 308 307 306 304 304 304 302 301 301 302 303 304 304 304 303 303 305 305 303 302 303 303 303 303 302 302 302 303 303 301 300 296 294 292 291 290 290 290 290 290 290 290 290 290 290 290 290 290 290 290 290 290 290 290 289 289 289 289 288 288 288 288 288 288 288 288 288 288 288
324 327 326 324 322 322 323 323 323 329 333 325 320 328 335 331 325 326 325 320 318 315 314 314 312 312 311 309 308 307 306 305 304 303 301 300 300 301 301 302 303 303 301 302 303 304 303 301 302 302 301 301 300 299 300 303 302 300 300 297 294 293 290 289 289 289 289 289 289 289 289 289 289 289 289 289 289 289 289 289 289 289 289 288 288 288 288 288 288 288 288 288 288 288 288 288 287
327 327 329 328 323 323 325 324 325 331 332 324 321 327 327 325 325 324 324 323 321 316 313 312 310 310 309 308 308 307 305 304 304 304 301 299 300 301 301 301 302 301 300 301 301 302 301 300 300 300 300 299 298 297 299 302 303 300 299 296 293 291 290 288 288 288 288 288 288 288 288 288 288 289 289 289 289 289 289 289 289 289 288 288 288 288 288 287 287 287 287 287 287 287 287 287 287
327 325 330 331 326 328 330 328 327 329 329 325 323 324 325 328 329 324 321 322 322 318 314 311 309 308 307 307 307 306 305 304 304 304 301 299 300 301 301 301 301 301 300 300 300 300 299 298 299 299 298 298 298 297 298 300 301 299 297 294 290 289 288 288 288 288 288 288 288 288 288 288 288 288 288 288 288 288 288 288 288 288 288 288 288 287 287 287 287 287 286 286 286 286 286 286 286
323 323 329 332 330 331 333 331 329 329 329 327 325 324 326 330 329 325 321 321 323 320 316 311 309 308 307 306 306 305 304 303 303 301 300 299 300 300 301 300 300 300 299 300 300 300 299 298 298 298 298 298 297 297 297 298 298 297 295 292 290 288 287 287 287 287 288 288 288 288 288 288 287 288 288 288 288 288 288 288 288 287 287 287 287 287 287 286 286 286 286 286 286 286 286 286 286
323 327 330 332 331 331 333 331 328 328 328 327 326 325 326 329 331 328 322 322 322 320 320 314 309 308 307 305 305 304 303 303 303 301 298 299 299 299 300 299 299 299 299 299 299 299 299 298 298 298 298 298 297 297 297 296 296 295 293 291 289 288 287 287 287 287 287 288 287 287 287 287 287 287 287 287 287 287 287 287 287 287 287 287 287 287 287 286 286 286 286 286 286 286 285 285 285
325 332 332 330 331 332 332 326 323 327 328 326 326 324 323 327 332 329 322 323 322 321 324 319 310 308 307 305 305 304 303 302 302 301 297 296 297 298 298 298 298 298 298 298 298 298 299 298 298 298 297 297 297 296 296 295 293 292 291 289 289 288 288 288 288 287 287 287 287 287 287 287 287 287 287 287 287 287 287 287 287 287 287 287 287 287 286 286 286 286 286 286 286 285 285 285 285
325 329 328 327 328 330 331 325 324 327 326 322 322 322 323 324 324 323 321 323 323 320 321 318 311 307 306 305 304 303 302 302 301 300 297 295 295 296 297 297 297 297 297 297 297 298 298 298 298 298 296 296 296 296 295 293 291 290 290 289 288 288 288 288 288 287 287 287 287 287 287 287 286 286 287 287 287 287 288 288 287 287 287 287 286 286 286 286 286 286 286 285 285 285 285 285 285
323 324 327 329 327 329 332 328 326 328 326 322 319 320 324 325 324 323 321 320 320 318 318 315 310 307 306 304 303 303 302 302 300 299 297 295 295 295 296 296 296 296 297 296 296 297 297 297 298 297 295 294 295 295 293 291 290 289 289 289 288 288 288 288 288 288 287 287 287 287 287 287 287 287 287 287 287 287 287 287 287 286 286 286 286 286 286 285 285 285 285 285 285 284 284 284 284
320 321 325 327 329 332 334 331 330 331 328 322 318 321 328 329 325 320 316 315 315 315 315 312 309 306 305 304 303 303 302 301 300 298 296 295 294 295 296 296 296 296 296 296 296 296 297 296 297 296 294 293 293 293 291 290 290 289 289 288 288 288 288 288 287 287 287 287 287 287 287 287 287 288 288 287 287 287 286 286 286 286 285 285 285 285 285 285 285 285 285 284 284 284 284 283 283
320 323 324 326 330 332 330 328 325 326 326 321 319 325 329 326 320 314 311 312 312 312 311 309 308 306 304 303 302 302 301 300 299 298 296 295 294 295 295 296 296 296 296 295 295 295 296 296 295 295 293 293 292 291 291 290 290 289 289 288 288 288 288 287 287 287 287 287 287 287 287 288 288 288 287 286 286 286 286 285 286 285 285 285 285 285 285 285 285 285 285 284 284 284 283 283 283
321 321 322 325 329 328 327 326 321 320 326 325 322 325 325 322 320 315 311 312 311 310 309 308 306 304 304 303 302 301 301 300 298 297 296 295 294 295 295 295 296 296 295 295 295 295 295 295 295 294 293 292 292 291 291 290 290 290 289 289 288 288 288 288 287 287 287 287 287 287 288 287 287 287 286 286 286 285 285 285 286 285 285 285 285 285 285 285 285 284 284 284 284 284 283 283 283
322 323 322 322 326 327 328 329 325 324 327 326 323 324 325 323 322 316 311 313 314 310 309 308 305 304 304 303 302 302 301 300 298 297 296 295 294 294 295 295 296 296 295 295 295 295 295 295 294 294 293 292 292 291 291 291 290 290 290 289 289 289 288 288 288 287 287 287 287 287 287 287 286 286 286 285 285 285 285 286 286 286 286 285 285 285 285 285 285 285 284 284 284 283 283 283 283
321 326 322 322 328 328 327 328 328 328 328 327 326 324 322 321 323 321 317 316 316 312 309 308 306 304 304 303 302 301 301 300 298 297 296 295 295 294 295 295 295 296 295 295 295 294 294 294 294 294 293 292 292 291 291 291 291 290 290 290 289 289 289 288 288 287 287 287 287 287 287 286 286 285 285 285 286 286 286 286 286 286 286 286 285 285 285 285 285 284 284 284 283 283 283 283 283
318 321 319 322 326 326 326 326 327 329 328 328 328 325 324 322 321 324 323 317 315 312 309 308 306 304 303 303 302 301 301 300 298 298 297 296 295 295 295 295 295 295 295 295 294 294 294 293 293 293 292 292 292 291 291 291 291 290 290 290 289 289 288 288 288 287 287 287 287 287 286 286 286 286 286 286 286 286 286 286 286 286 286 285 285 285 285 284 284 284 284 283 283 283 283 283 282
318 320 320 321 320 322 325 324 325 329 328 329 328 326 331 328 319 320 322 317 313 311 310 308 305 304 303 303 302 301 301 300 299 298 297 295 295 294 295 295 295 295 295 294 294 294 293 293 292 292 292 291 291 291 291 290 290 290 289 289 288 288 287 287 287 287 287 287 287 286 286 286 286 286 286 286 286 286 286 286 286 286 286 285 285 285 284 284 284 284 283 283 283 283 282 282 282
318 319 320 320 319 321 324 324 324 325 325 329 328 326 330 326 317 317 320 317 312 310 310 309 306 305 304 303 303 302 301 300 299 298 297 295 294 294 294 294 294 295 294 294 293 293 293 292 292 292 291 291 290 290 290 290 289 289 288 288 287 287 287 287 287 287 287 287 286 286 286 286 286 286 286 286 286 286 286 286 286 286 285 285 284 284 284 284 283 283 283 283 282 282 282 282 281
Wind_Speed
11 11 7 7 7 8 6 2 2 3 4 3 1 3 2 3 4 4 4 3 3 2 2 1 2 2 4 7 9 9 5 2 2 3 2 4 7 8 9 12 15 17 17 16 18 18 15 14 13 13 13 12 13 12 12 11 10 10 10 12 12 11 11 11 11 11 11 11 11 11 12 12 11 10 11 11 13 13 14 15 15 14 14 16 18 18 18 16 15 13 11 7 5 5 5 4 5
11 10 7 7 6 3 2 3 4 2 5 3 1 3 2 4 6 5 5 4 2 3 1 3 4 4 6 8 8 10 7 7 5 4 4 8 9 9 12 14 16 16 16 15 17 19 16 15 14 13 12 12 12 12 12 11 10 10 10 11 11 11 11 11 11 10 10 10 11 11 11 11 10 10 10 11 12 13 13 14 15 13 12 15 18 19 18 17 15 13 11 9 7 6 6 6 5
10 10 9 8 4 2 1 3 3 2 5 4 2 2 2 6 6 5 5 4 2 3 1 4 5 4 6 8 6 7 3 4 6 3 4 5 4 7 12 13 15 14 14 14 16 19 17 16 14 13 13 11 12 11 12 11 10 10 11 12 11 11 11 10 10 10 10 10 10 11 10 10 10 9 10 11 12 12 13 14 14 12 11 14 18 19 19 18 15 13 12 10 9 8 8 7 6
9 9 10 8 4 3 3 3 2 4 4 4 2 2 3 7 6 6 4 3 1 2 2 3 4 3 7 8 3 5 2 1 5 4 3 3 5 8 12 13 15 14 14 13 14 19 18 16 15 13 13 12 12 11 11 10 10 9 10 11 11 11 11 10 10 10 10 10 10 10 10 10 9 9 9 11 12 12 13 13 12 11 13 15 18 20 20 18 15 13 12 12 11 10 10 9 8
9 9 7 3 3 1 2 2 1 5 3 4 3 1 5 7 6 6 3 2 3 5 3 2 3 2 6 4 1 3 2 2 5 8 4 4 8 9 11 13 15 15 13 13 13 17 17 15 15 13 13 13 12 11 11 10 10 9 9 10 11 12 11 11 10 10 9 10 10 10 10 9 9 9 10 11 12 12 11 10 10 12 14 16 18 19 19 19 16 13 12 12 12 12 11 11 10
11 10 3 1 1 1 3 3 3 4 1 4 5 3 6 7 7 7 3 2 3 5 5 4 3 4 5 3 3 3 3 2 2 6 4 6 9 8 10 13 15 15 14 14 13 14 13 14 15 13 13 13 12 12 11 10 10 9 9 9 10 11 11 11 10 9 9 10 10 10 9 9 9 8 9 10 11 11 9 9 10 12 14 16 18 18 19 19 17 14 11 12 12 12 12 12 12
11 8 2 2 2 1 4 3 3 3 2 3 6 6 7 7 6 8 5 2 4 4 4 4 5 6 3 1 4 4 7 6 3 4 5 9 8 7 11 13 14 14 15 16 14 13 12 12 14 13 13 13 13 13 12 11 10 10 9 10 11 10 10 10 10 9 10 10 10 9 9 9 8 9 10 10 10 10 8 8 9 10 13 16 17 18 18 18 18 15 12 11 12 13 13 13 13
6 2 1 4 2 3 4 3 2 2 1 2 4 6 7 7 6 6 5 3 1 2 4 3 6 7 2 2 4 3 11 12 7 7 8 10 9 12 15 15 13 12 14 17 15 14 13 12 12 13 13 12 13 12 12 12 11 11 10 11 11 10 9 9 9 9 10 10 9 9 8 8 8 9 10 9 9 9 8 8 9 11 13 16 17 18 18 18 18 16 12 11 12 13 13 14 13
2 1 2 3 1 3 4 2 2 2 2 3 3 3 4 5 5 5 5 4 3 2 4 3 5 6 1 6 5 1 9 11 9 9 8 10 12 16 18 16 14 13 15 16 14 14 13 12 11 13 13 12 12 12 12 12 12 11 11 11 11 10 10 10 10 10 10 9 8 9 8 8 7 8 9 9 9 8 8 9 10 12 14 16 17 18 18 18 18 17 13 11 11 12 14 14 14
2 1 1 2 2 4 3 1 1 3 2 3 4 3 2 2 4 5 6 5 4 4 4 3 8 6 5 5 3 2 6 7 8 10 8 9 11 15 18 18 15 14 15 14 13 12 12 11 10 11 13 11 12 12 12 11 12 12 11 10 10 11 11 10 10 11 10 8 8 8 8 8 8 8 8 8 9 9 10 8 10 13 14 16 17 18 17 18 18 17 14 11 12 12 14 14 14
3 3 2 4 3 3 2 2 2 3 3 3 2 2 1 2 4 4 5 5 4 5 3 4 7 5 5 4 1 2 8 8 8 9 7 6 10 13 15 16 15 14 13 12 11 10 9 9 8 10 13 12 12 12 11 11 12 12 12 10 10 10 11 10 11 11 10 9 8 7 7 8 8 8 9 9 9 9 9 8 9 12 13 15 16 17 17 17 17 17 14 12 12 13 14 14 14
3 4 4 4 1 1 3 5 4 4 3 3 1 4 2 4 5 3 5 5 4 6 3 3 4 4 5 2 3 2 9 11 8 8 6 5 8 10 12 14 15 15 14 11 10 9 6 4 7 11 14 13 12 11 11 11 11 12 12 11 10 10 11 10 11 11 10 9 7 6 7 9 9 9 10 10 9 8 8 7 8 9 11 13 14 15 16 16 17 17 15 13 12 12 13 14 14
3 1 5 2 2 3 3 5 5 5 3 0 3 3 1 5 3 2 5 6 4 6 2 1 3 5 4 1 2 0 8 11 6 6 5 4 7 8 9 11 13 14 14 12 11 9 5 3 6 11 15 14 12 11 10 10 10 11 12 12 11 10 11 11 11 11 10 9 7 5 6 9 10 10 11 11 10 9 8 7 6 7 8 10 12 14 14 15 16 16 16 14 12 11 12 12 13
2 1 5 1 1 3 4 4 3 4 1 3 2 1 1 2 2 4 7 7 4 2 1 1 4 6 4 2 1 2 7 8 4 6 5 5 8 10 10 9 12 13 12 12 13 10 7 5 5 8 13 13 11 11 10 10 10 10 11 13 13 10 10 11 11 10 10 9 8 6 6 8 9 10 11 11 10 9 8 6 5 5 7 9 11 13 14 14 15 15 16 15 12 11 11 10 11
2 1 4 2 3 2 2 2 4 5 2 3 1 1 3 1 3 6 6 6 1 2 1 5 4 4 3 3 2 2 5 6 3 7 6 6 10 13 13 12 11 11 10 9 11 10 9 8 7 6 7 7 7 8 9 10 10 10 10 12 13 12 11 11 10 10 10 9 8 6 6 7 9 10 11 11 10 9 7 4 3 5 6 9 11 12 13 14 14 15 15 15 14 12 10 10 10
3 3 5 3 2 1 1 1 5 5 2 4 3 3 5 3 2 5 1 5 2 4 4 5 5 3 3 3 3 1 3 4 5 9 8 8 12 14 15 14 13 11 9 7 8 9 9 10 9 8 6 4 4 5 6 8 8 8 9 10 12 14 12 10 10 9 9 9 8 7 6 7 8 10 11 11 11 10 8 4 3 4 6 8 9 11 12 13 14 15 14 14 14 13 11 10 9
4 4 5 3 1 1 1 1 3 4 3 4 1 3 5 2 3 2 1 6 5 4 6 4 6 6 4 5 5 5 6 6 9 11 10 10 12 14 15 15 13 12 10 8 7 7 8 10 10 10 9 6 4 4 5 5 5 6 8 9 10 13 13 11 10 8 8 9 8 8 7 6 7 8 10 11 11 11 8 6 4 3 5 7 8 10 11 12 13 14 14 14 14 13 11 10 9
5 3 4 2 0 1 1 1 2 4 5 4 2 3 6 3 1 0 2 7 6 5 7 5 7 8 8 10 10 9 8 10 12 13 13 12 12 14 14 12 11 10 9 7 5 5 7 9 10 11 11 9 7 7 7 6 5 5 6 7 10 11 12 11 10 9 8 9 8 8 8 7 6 7 10 11 12 11 10 8 4 3 4 5 7 9 10 10 11 12 13 14 14 13 12 10 9
4 3 4 0 3 1 1 3 3 3 6 5 2 4 6 5 2 1 1 3 5 6 4 4 7 7 7 11 12 12 12 13 13 15 16 15 14 13 13 11 9 8 7 6 3 2 4 6 8 10 11 11 10 7 7 7 7 6 5 6 9 10 10 11 11 10 9 8 8 7 7 7 6 6 9 11 12 12 11 8 4 2 3 4 6 7 8 9 10 11 12 14 13 13 13 12 11
2 3 4 3 4 2 3 4 5 2 6 7 3 3 4 2 2 2 2 2 5 5 2 3 5 4 4 6 11 14 15 16 14 15 16 15 15 13 13 12 10 8 7 5 3 1 2 5 8 9 11 11 11 9 6 6 5 5 4 5 9 11 11 12 12 11 10 8 6 6 7 8 7 8 9 11 12 13 11 8 4 0 1 4 6 7 8 9 9 10 12 13 12 13 13 13 13
2 3 4 5 2 3 3 4 6 4 5 7 4 3 4 1 0 3 4 3 2 3 3 4 6 7 6 5 9 13 14 16 15 15 15 14 13 12 12 11 9 7 6 4 3 2 2 4 7 10 11 11 12 10 8 6 4 4 4 4 8 11 12 12 12 12 11 9 6 6 8 8 7 7 10 13 13 13 11 9 7 4 3 4 5 6 7 7 8 10 12 12 11 12 14 16 16
3 1 4 3 3 3 2 3 5 4 5 5 4 4 1 1 1 2 6 4 3 4 3 5 7 7 7 6 9 11 12 14 14 14 14 13 12 11 10 9 7 6 5 6 6 5 3 1 4 8 12 12 12 11 10 6 4 6 6 5 7 9 11 13 13 12 11 10 8 7 9 8 8 6 8 13 13 11 12 11 9 6 4 5 5 6 6 6 8 9 10 11 11 13 15 17 17
3 2 1 3 4 4 2 2 3 4 6 4 2 1 1 2 2 1 5 3 4 5 5 7 7 8 10 10 9 8 8 11 12 13 13 12 12 11 10 10 9 8 8 8 8 7 4 4 2 4 11 14 13 12 10 5 4 7 9 10 9 10 12 13 12 9 9 9 9 10 9 8 8 6 7 11 12 11 11 12 10 7 5 6 5 7 7 5 7 7 8 10 11 12 15 16 17
5 1 3 4 3 4 3 3 3 5 4 1 2 1 0 2 2 1 5 2 4 7 7 9 9 11 13 10 8 7 8 11 13 13 13 13 12 10 9 10 9 9 10 10 10 9 6 5 3 1 9 15 13 11 8 3 6 9 12 14 13 13 12 11 10 8 8 8 7 8 8 8 8 8 6 9 12 13 13 13 12 8 7 7 5 8 10 7 5 5 7 9 10 11 13 14 15
4 1 2 2 1 3 5 5 4 3 2 2 2 1 3 4 3 0 4 5 5 7 8 9 9 11 10 7 7 7 8 11 13 13 13 12 11 10 9 9 9 10 11 11 11 10 7 4 4 2 8 15 13 9 7 6 10 13 14 16 15 15 14 14 12 9 9 8 5 7 8 8 8 8 7 7 8 10 13 15 13 11 10 8 7 11 12 8 5 4 5 8 9 9 11 11 12
1 2 1 2 3 2 4 5 5 4 3 2 1 3 6 4 3 2 4 8 6 7 7 6 8 8 7 6 7 8 8 10 12 12 12 11 10 10 11 9 9 11 10 10 11 10 7 5 6 4 9 13 9 8 9 11 15 16 17 18 17 16 16 17 15 12 11 10 7 8 8 6 5 6 7 8 7 7 10 14 13 13 12 9 9 13 12 9 8 6 5 7 7 9 10 9 9
2 2 3 3 5 5 3 5 6 5 3 4 4 4 5 3 2 3 4 7 7 8 7 6 7 6 6 6 6 9 9 10 11 11 11 10 10 11 10 9 9 9 9 10 11 8 5 5 8 8 8 8 7 10 13 16 17 17 18 19 18 17 16 16 15 13 11 9 8 6 6 5 5 6 7 8 9 9 10 12 12 13 12 11 12 14 13 11 10 9 7 7 7 9 10 9 8
1 3 5 6 6 6 4 6 6 4 2 5 7 3 4 3 1 5 7 8 7 9 8 6 7 6 6 6 5 8 10 11 10 10 11 10 9 10 10 9 9 9 9 11 9 5 4 6 9 9 8 7 10 13 15 18 19 20 20 20 19 18 15 14 13 12 10 10 9 7 6 6 6 7 7 7 9 11 12 13 13 12 13 14 14 14 14 13 12 11 9 8 7 7 7 8 9
2 3 2 7 6 5 6 6 6 6 3 6 7 2 5 3 5 4 9 9 7 8 8 6 7 6 6 6 5 6 9 11 11 11 10 9 9 8 9 8 8 9 10 9 7 6 7 8 10 11 12 12 13 15 16 18 20 21 22 21 20 18 15 14 14 13 12 11 10 9 10 9 9 8 7 8 9 11 11 11 12 14 14 15 15 15 14 13 12 11 9 8 8 6 6 8 8
1 1 1 3 7 5 7 4 6 6 3 6 7 2 6 6 5 5 8 9 8 7 7 6 6 6 6 5 5 5 8 11 10 11 9 8 8 7 8 7 8 9 9 8 7 8 9 10 11 11 15 15 15 17 17 18 21 21 22 21 19 16 13 13 14 14 13 12 11 11 11 11 12 11 10 10 10 11 11 11 13 14 14 14 15 15 15 13 11 11 9 8 7 6 7 7 6
0 1 1 1 2 5 7 0 8 6 1 5 7 1 6 7 4 6 7 8 9 8 7 6 6 5 5 5 5 5 6 10 11 11 9 8 7 6 8 8 8 9 9 8 8 10 11 12 13 13 16 18 17 20 20 19 21 21 22 21 19 15 13 15 16 16 15 14 13 13 12 12 13 14 13 13 13 12 12 13 13 14 14 13 15 15 14 13 11 11 9 7 7 7 6 6 6
1 1 3 2 2 5 7 1 8 7 1 3 6 2 6 7 5 7 6 7 8 8 8 7 7 7 6 5 5 5 5 10 12 11 9 7 6 7 9 8 9 10 10 9 8 11 13 14 16 16 18 21 21 22 23 23 23 21 21 22 21 19 18 19 20 19 18 16 16 17 16 15 16 17 18 17 17 18 17 18 17 16 16 15 16 15 14 13 12 12 11 9 7 7 6 6 7
2 2 3 3 2 3 4 3 4 6 4 2 3 2 4 5 5 7 7 8 8 7 8 8 8 7 7 6 5 6 5 7 9 10 9 7 7 8 9 9 10 11 11 10 10 12 14 16 18 18 19 22 24 25 26 27 26 23 23 24 24 23 22 22 22 22 21 20 20 21 19 19 19 20 21 21 21 22 22 23 22 20 19 19 19 18 17 17 15 15 17 15 12 9 9 10 11
4 1 3 4 3 2 1 4 4 4 6 4 4 4 6 5 4 8 8 9 9 8 9 10 9 8 7 6 6 6 6 5 6 9 9 7 7 8 9 9 11 12 12 12 12 14 16 17 19 21 21 24 26 27 28 27 27 27 26 26 26 26 26 25 25 25 25 24 23 24 22 22 22 22 22 22 23 24 24 24 23 21 20 21 21 22 22 22 20 20 21 21 18 15 13 13 15
3 3 2 3 3 2 3 4 3 5 4 4 5 6 10 9 5 7 8 9 9 9 9 8 8 8 7 7 6 6 6 5 6 10 10 7 8 9 10 11 12 13 13 14 15 16 17 18 20 22 23 25 27 27 29 28 28 29 29 28 29 29 29 28 27 27 26 25 25 25 25 25 24 23 23 23 23 24 24 24 23 22 21 22 23 24 23 22 22 22 23 24 23 21 18 15 16
6 5 4 4 3 4 4 4 4 7 5 5 7 7 9 10 8 8 8 8 9 9 6 6 7 7 7 7 6 7 6 5 8 12 10 8 9 10 11 13 14 14 15 16 17 18 19 20 21 23 23 24 27 27 28 30 30 30 30 30 30 30 30 29 28 28 27 27 26 26 26 26 25 25 24 23 24 24 24 23 22 22 21 21 22 23 22 21 21 21 22 23 23 25 23 18 17
5 3 3 4 4 5 4 4 4 4 4 6 9 8 9 9 8 9 9 7 9 9 7 7 8 7 8 8 7 7 7 6 11 13 11 10 11 12 13 14 16 17 17 18 18 19 19 19 21 23 22 22 25 27 27 28 30 30 30 31 31 30 30 30 30 29 28 28 26 26 26 25 25 25 24 23 24 24 24 23 22 23 22 22 23 23 21 20 19 20 22 23 23 26 27 22 17
6 5 5 4 4 5 5 3 3 0 2 6 6 6 9 9 8 7 7 7 10 13 11 10 11 9 7 8 8 7 6 7 11 12 12 13 13 13 14 15 17 19 18 18 19 18 19 20 21 22 22 22 23 26 27 27 28 29 30 31 32 31 30 30 30 29 28 27 26 25 25 24 24 25 25 25 26 26 27 27 26 25 24 23 24 23 21 20 20 20 21 24 25 27 28 25 18
7 5 4 4 4 4 5 3 2 1 2 4 5 5 8 9 9 6 8 11 11 13 13 11 11 11 8 9 9 8 7 7 7 9 13 15 14 14 15 16 18 19 19 18 18 18 19 20 21 22 22 23 23 24 27 28 28 29 31 32 31 31 30 30 30 29 27 27 27 26 25 25 26 27 28 28 29 29 30 30 29 28 26 25 24 24 23 23 23 22 22 23 24 26 26 25 22
4 4 4 4 4 2 3 4 3 2 1 2 4 5 6 7 8 8 9 9 4 5 7 7 9 10 10 10 9 10 10 9 7 8 11 14 15 15 16 17 18 19 18 18 18 19 19 20 21 22 22 23 23 24 27 29 30 31 32 31 31 33 32 31 31 30 29 29 29 29 29 29 29 30 30 29 30 30 29 29 28 27 26 25 24 25 25 25 24 23 23 22 22 24 25 24 23
3 5 6 4 4 5 5 3 1 3 4 2 2 5 6 5 9 11 5 0 0 2 5 6 7 8 8 8 9 10 10 10 9 8 9 13 15 15 16 18 18 19 18 16 18 19 19 20 21 21 22 23 24 26 28 30 31 32 34 33 33 34 33 32 33 33 32 33 33 32 31 30 30 29 29 28 28 28 27 27 26 26 26 25 24 25 25 24 23 22 22 22 22 22 23 23 22
5 5 7 7 6 7 6 0 3 3 5 3 1 3 6 3 7 10 2 1 4 3 5 8 7 7 8 8 8 8 8 9 9 9 10 13 14 15 16 17 18 18 16 15 17 18 19 19 20 22 23 25 26 28 30 30 31 32 34 34 34 34 32 30 33 34 33 34 33 32 31 29 29 28 28 27 26 26 26 25 25 25 25 24 24 24 23 22 22 21 20 20 21 20 19 22 21
4 5 7 9 8 8 7 3 1 2 4 3 3 2 7 5 4 7 4 5 8 6 6 8 6 7 8 8 8 8 8 8 8 9 11 13 15 16 15 16 17 17 15 15 17 18 19 20 21 23 25 28 29 29 29 29 31 32 33 34 36 37 34 31 33 34 34 34 33 32 31 29 28 28 27 26 25 25 24 24 23 23 23 23 22 22 22 21 20 20 19 19 19 18 18 20 20
4 5 4 7 8 8 7 4 2 3 3 4 1 3 5 8 6 8 8 7 8 9 10 8 7 8 7 7 8 9 9 9 9 8 10 13 16 17 17 17 18 17 17 18 19 21 22 24 25 27 28 29 27 26 26 28 30 32 34 36 37 37 37 35 34 34 34 33 33 31 30 29 27 26 26 25 24 23 23 23 22 22 22 21 20 21 21 19 19 18 18 18 18 18 18 20 19
5 4 5 6 5 5 4 5 2 1 2 3 1 4 3 9 5 3 5 6 10 13 14 12 10 9 8 8 8 9 9 10 10 9 10 15 17 19 20 20 19 19 19 21 22 24 25 26 28 28 27 26 24 22 24 27 30 33 37 39 38 36 37 36 34 34 33 32 32 30 29 28 26 25 24 23 23 22 21 21 20 20 21 20 19 20 19 18 18 18 18 18 19 19 19 18 18
4 3 6 6 4 4 5 4 3 3 3 5 5 5 3 8 4 3 2 4 11 13 10 10 10 10 9 9 8 8 8 8 9 10 13 17 19 21 22 21 21 20 20 22 23 25 26 27 27 26 24 23 22 21 23 28 32 35 38 41 40 38 37 36 35 34 33 31 31 30 28 27 26 25 24 22 22 21 20 20 20 20 20 19 19 18 18 17 17 18 18 18 18 18 17 17 17
5 6 7 7 6 5 4 2 5 2 5 5 9 10 6 5 4 4 4 5 8 6 2 5 9 10 10 9 9 10 8 8 8 9 13 18 20 22 22 22 22 21 21 22 23 25 26 26 26 25 23 22 22 22 24 30 34 37 39 40 41 40 38 37 36 34 32 32 31 30 28 27 25 24 23 22 21 20 20 19 19 19 18 17 17 16 16 16 16 16 15 15 15 15 15 14 14
6 5 5 4 4 5 5 4 4 1 7 5 10 11 10 8 6 3 4 5 4 5 5 8 11 12 11 10 9 10 9 8 8 8 11 16 18 20 22 21 22 23 22 23 24 25 26 25 25 24 23 22 24 24 27 32 35 37 38 39 40 39 38 38 36 35 33 32 31 30 28 27 25 24 23 22 21 19 18 17 16 16 15 14 14 14 14 14 14 13 13 12 13 13 13 12 12
5 5 6 3 1 3 2 2 1 4 6 4 7 7 7 9 7 6 10 9 6 6 6 9 13 13 11 10 9 9 8 8 9 8 9 12 15 18 21 21 22 24 24 24 25 26 26 26 25 25 24 24 25 27 29 33 35 36 37 37 37 37 37 36 35 34 33 31 31 29 28 27 26 24 22 21 19 17 15 15 14 14 14 14 13 13 13 13 12 11 11 12 12 11 11 11 11
5 6 6 5 3 1 2 3 2 4 5 4 4 5 3 5 5 8 13 10 5 5 5 8 12 12 12 11 10 9 9 9 9 8 8 10 14 18 20 21 22 24 25 25 26 27 27 27 26 26 26 26 28 30 32 34 34 34 35 35 36 35 35 34 34 33 32 30 29 28 27 26 25 23 21 19 17 15 14 14 14 14 14 14 13 12 12 12 11 11 11 11 11 11 11 11 11
6 5 6 6 5 4 4 4 4 4 4 4 2 3 4 3 2 6 7 6 4 4 1 5 7 8 9 9 9 9 9 9 8 8 8 11 16 19 20 22 23 24 26 26 27 28 28 28 27 28 29 29 30 32 34 34 33 33 33 34 34 34 33 33 32 31 30 29 28 27 26 24 22 21 20 19 17 15 15 15 14 14 14 13 12 12 11 11 10 10 10 10 10 10 10 10 10
3 2 4 3 6 5 3 3 5 3 2 3 3 4 5 4 4 4 1 4 4 5 4 7 7 8 9 8 9 9 9 8 8 8 9 12 17 20 22 23 24 25 27 27 28 29 29 29 29 30 30 31 32 33 34 33 33 32 32 33 33 33 32 32 31 30 29 28 27 25 24 22 21 20 19 19 18 16 15 15 14 14 13 12 11 11 10 10 9 9 9 9 9 9 8 9 9
2 2 4 4 5 5 3 3 1 2 3 4 4 4 4 3 6 3 3 1 1 3 4 7 7 9 10 9 9 9 9 9 9 9 9 13 18 21 23 25 26 28 28 29 30 30 31 31 31 31 32 32 33 33 34 33 33 33 32 33 32 32 32 31 31 30 28 27 25 24 23 22 21 20 20 19 18 16 15 14 13 13 12 10 10 9 8 8 8 8 8 7 7 7 6 6 6
6 4 6 2 2 2 2 2 2 1 4 5 4 6 5 3 5 1 4 3 5 4 5 6 6 9 10 9 9 10 10 9 9 9 11 15 19 21 23 25 26 29 29 30 30 31 31 31 32 33 33 33 34 34 34 33 33 33 33 33 32 32 31 31 30 30 28 27 25 23 23 22 21 20 19 18 17 16 14 13 11 11 10 9 8 7 6 6 6 5 5 4 4 4 3 3 3
5 4 5 4 1 1 2 3 3 2 4 5 3 5 6 8 7 2 4 9 10 8 7 7 9 11 10 9 10 10 10 9 9 10 10 14 19 21 23 25 26 28 29 29 30 30 31 32 32 33 34 34 34 34 34 33 33 34 33 33 32 31 31 30 30 29 28 27 25 24 23 22 22 20 18 17 16 14 13 11 10 9 8 7 6 5 5 4 3 2 2 2 2 2 1 0 1
3 1 2 2 2 3 4 3 3 3 4 5 3 3 5 7 7 8 11 13 13 11 10 11 13 13 11 10 10 11 11 11 10 11 10 13 19 22 24 26 27 29 29 29 30 31 32 32 32 33 34 34 34 34 34 33 33 33 33 32 31 31 31 30 29 28 27 26 25 24 23 22 21 19 17 16 15 13 12 10 9 7 6 6 4 4 3 3 2 2 2 2 2 2 2 1 0
3 3 5 3 1 2 1 2 3 4 3 3 3 6 7 4 4 9 13 13 13 14 14 13 12 12 11 10 11 11 11 11 11 10 10 13 19 22 24 26 27 28 29 29 30 31 32 33 33 34 35 35 34 34 34 34 33 33 33 32 32 31 30 29 29 28 26 26 25 24 23 21 20 19 17 16 14 12 10 9 8 7 5 5 4 4 4 4 4 3 3 3 3 3 2 2 1
6 6 8 8 6 4 2 4 3 3 3 4 3 8 10 4 1 3 7 8 10 14 15 12 11 12 12 11 11 11 11 11 11 10 10 13 19 22 24 26 27 28 29 29 30 31 32 33 34 35 36 36 36 35 35 34 34 33 33 33 32 31 30 29 29 28 26 26 25 23 22 20 19 18 16 14 12 11 10 8 8 7 6 5 5 5 5 5 4 4 3 3 3 3 3 3 2
Wind_Direction
345 341 346 354 344 338 328 74 67 326 79 88 110 97 47 77 96 74 58 45 63 302 261 104 42 46 83 102 106 87 56 23 112 115 133 157 121 130 128 129 152 156 157 161 169 172 162 156 152 150 146 142 137 131 127 118 112 104 106 110 110 112 111 109 104 102 99 102 105 101 98 96 94 92 91 89 89 89 87 84 77 70 57 48 46 43 38 34 31 27 25 27 38 51 60 65 70
349 351 5 357 338 357 296 98 83 344 58 63 24 96 104 64 69 79 84 84 132 240 261 55 52 61 88 109 100 73 38 5 46 97 111 119 114 125 126 133 151 151 154 160 168 172 166 159 156 155 151 147 141 134 130 122 117 109 111 113 114 117 113 112 108 106 103 107 110 105 102 98 96 94 94 92 91 90 87 83 77 71 56 48 46 43 40 36 34 34 34 35 41 53 61 69 73
354 1 7 4 356 70 31 47 85 84 74 92 11 329 88 78 94 110 112 114 192 235 42 28 40 44 63 71 57 71 67 3 36 67 104 110 97 116 127 133 149 154 153 157 166 172 169 161 158 157 155 151 147 139 133 125 119 115 116 118 122 124 120 118 115 113 109 110 113 112 108 100 98 96 96 94 93 91 88 84 79 71 56 48 45 42 40 38 37 41 46 48 50 55 61 67 71
350 358 348 359 30 39 45 55 114 111 106 134 68 341 92 107 125 116 127 132 20 48 66 40 48 29 72 75 51 72 83 354 26 51 100 80 78 112 124 126 147 154 151 155 164 173 171 163 160 159 159 157 154 146 138 130 123 117 117 124 130 131 128 126 124 120 114 113 112 111 110 104 101 101 99 97 94 89 88 86 82 71 57 49 43 40 39 38 40 45 53 57 59 61 63 66 69
350 357 337 4 68 30 76 81 88 95 138 171 118 133 122 123 127 119 138 122 61 72 76 68 82 43 71 63 33 72 325 287 34 53 86 104 99 109 117 124 148 151 151 155 157 170 172 168 163 162 163 161 159 153 144 135 128 122 117 124 133 136 133 130 130 126 122 121 114 112 112 108 107 106 104 100 96 92 91 89 81 69 56 48 41 38 37 37 39 43 54 62 66 67 67 69 71
351 1 2 108 110 172 86 64 55 73 181 161 126 160 140 131 134 133 123 66 52 81 88 70 99 91 72 33 59 85 321 287 73 47 73 118 109 111 125 132 148 152 155 154 148 154 159 170 171 165 165 163 163 157 147 139 132 127 119 123 134 140 136 133 134 131 129 126 120 118 120 115 113 113 109 104 103 101 95 84 73 63 52 47 43 38 36 37 38 40 50 60 66 69 70 71 75
345 354 42 66 349 55 88 106 113 78 360 115 132 150 138 139 141 131 122 76 16 29 74 90 117 98 72 138 78 47 31 53 92 59 83 116 114 115 129 134 147 153 158 160 152 148 145 159 175 174 167 165 165 159 152 146 140 136 125 123 134 142 140 137 136 136 133 129 126 123 125 124 122 119 114 111 109 105 95 84 71 59 51 48 44 40 37 37 37 38 45 56 63 65 68 70 74
345 336 58 74 11 32 88 107 124 130 48 70 130 145 138 141 136 130 135 123 98 11 33 55 103 92 356 76 98 52 53 56 69 89 107 117 111 111 125 135 144 143 152 165 157 152 151 152 171 181 173 168 168 164 160 154 148 142 131 127 133 143 145 140 136 139 137 134 134 130 129 129 129 124 121 120 113 105 95 86 73 62 56 49 44 41 39 38 38 38 42 52 60 63 65 67 70
27 169 17 73 45 39 83 87 76 119 107 83 91 117 126 123 119 122 118 96 132 98 18 2 78 102 103 67 93 90 57 54 65 82 104 122 115 112 122 126 132 131 136 153 150 149 152 154 168 181 181 173 170 169 166 158 154 149 137 133 135 144 148 143 140 142 144 145 146 142 138 135 133 127 127 124 115 106 93 84 72 65 58 50 43 41 40 40 39 39 42 48 56 60 63 63 66
60 158 49 77 52 57 74 80 85 110 124 128 100 99 85 61 91 100 110 105 120 98 359 19 77 113 141 87 90 48 47 53 68 67 74 116 126 123 124 116 117 126 127 134 140 145 149 156 168 182 186 179 174 172 169 164 158 153 146 141 139 147 151 149 149 150 154 160 159 155 152 144 138 134 131 126 117 106 96 84 68 62 56 49 43 41 42 43 43 43 44 49 55 58 62 63 64
43 332 85 76 35 65 145 142 117 124 126 113 56 12 40 35 78 81 99 103 95 89 350 31 84 120 110 79 138 87 57 50 60 65 56 91 130 136 136 125 116 117 119 122 127 134 140 156 175 186 188 184 179 173 172 171 165 157 152 150 145 149 155 158 158 160 165 169 169 168 165 152 142 141 136 131 125 112 104 88 66 61 54 47 43 44 46 48 48 48 49 52 57 59 63 64 66
62 333 65 78 49 151 171 140 139 133 94 87 46 303 343 44 64 61 90 96 82 80 20 24 109 128 95 78 191 138 43 38 48 69 65 73 113 134 145 143 132 119 113 115 118 120 118 146 182 187 187 185 179 177 178 174 173 165 157 156 152 149 156 164 169 171 174 174 178 176 170 159 149 149 143 138 137 129 117 99 75 63 52 46 46 49 50 52 52 52 53 54 57 60 64 66 69
85 23 78 86 195 140 126 126 152 122 54 138 182 255 19 57 73 117 98 82 64 83 29 320 114 93 96 148 157 75 12 22 43 78 91 74 81 110 135 146 147 137 121 115 115 115 107 117 175 186 185 182 177 180 184 178 179 173 165 163 157 153 155 166 177 179 180 178 177 174 170 163 156 154 152 147 148 147 133 113 87 64 49 48 53 54 51 52 53 54 56 56 57 59 62 66 70
90 121 102 110 305 110 120 115 156 113 66 256 215 239 56 87 125 103 97 78 45 123 200 354 96 91 101 147 47 320 347 9 51 101 111 85 77 90 103 126 147 150 138 128 124 121 118 124 159 181 184 184 178 177 184 183 184 183 177 169 161 159 158 165 178 184 185 181 175 169 167 165 163 161 158 156 156 154 140 119 91 72 58 57 60 59 55 53 52 54 57 59 60 60 62 64 67
114 119 94 88 353 55 140 140 152 121 157 234 216 164 74 74 111 76 96 113 117 242 90 28 53 104 136 165 198 269 332 360 82 124 123 101 89 83 82 102 125 136 140 141 141 136 124 129 150 166 180 188 185 186 199 196 189 192 189 179 170 165 166 168 175 186 188 187 184 171 160 164 173 171 163 162 163 160 147 131 101 85 72 69 67 65 60 56 55 56 60 63 64 64 65 65 67
108 99 73 68 342 77 199 156 119 107 187 217 204 127 77 337 58 83 175 136 117 349 43 12 14 91 114 143 168 162 7 17 130 146 139 119 101 89 82 90 100 106 115 123 143 154 138 132 142 156 170 182 198 200 210 209 198 197 196 193 183 172 171 171 172 185 191 191 193 185 168 161 177 178 168 170 172 166 160 157 140 104 86 79 74 73 67 61 61 60 61 65 68 68 69 69 69
61 73 66 43 317 115 255 4 131 147 185 206 215 100 106 303 1 92 277 81 92 33 51 27 30 78 95 110 116 89 67 76 126 145 139 130 113 99 91 92 95 94 93 96 115 149 157 151 144 151 163 170 195 209 206 205 201 204 204 203 201 184 175 174 171 181 194 191 193 195 186 172 178 178 171 178 181 175 172 171 162 121 100 91 81 79 71 66 64 60 58 58 62 66 69 72 72
54 75 78 57 205 78 256 185 173 152 139 180 186 102 122 159 314 339 10 57 84 67 57 56 55 69 88 103 99 84 87 88 103 112 104 105 100 88 82 83 86 81 78 83 97 129 155 164 161 161 163 163 175 202 215 214 210 212 213 209 212 199 180 179 177 179 195 194 192 193 193 194 194 181 176 184 189 187 184 178 169 125 107 99 92 84 74 70 64 57 52 49 51 55 59 66 69
70 101 79 182 198 55 256 135 99 109 146 167 121 90 115 158 182 68 20 61 97 91 63 75 74 70 80 93 95 87 86 83 86 90 82 78 74 69 65 61 64 61 53 54 63 129 157 168 174 176 173 169 163 169 196 206 200 198 218 217 209 203 187 186 186 186 194 194 193 192 193 199 201 192 184 187 191 192 186 180 169 97 102 110 102 91 77 70 62 55 51 48 48 48 49 53 53
80 100 75 252 207 66 20 88 83 87 136 134 99 77 95 163 174 103 155 81 93 129 154 135 118 119 110 91 92 89 83 79 77 79 75 70 66 63 58 50 46 39 30 23 360 278 202 186 185 185 182 181 172 152 148 175 181 180 214 215 199 198 193 193 194 194 196 195 191 189 195 197 195 195 191 187 188 190 187 183 180 137 154 134 106 88 77 69 59 52 51 49 48 49 49 49 46
57 100 141 229 170 80 2 70 79 58 92 122 129 74 66 260 142 115 145 94 54 194 208 165 151 149 141 113 93 90 85 80 75 74 71 68 67 64 60 54 44 34 21 1 341 320 270 219 200 193 190 187 180 165 146 156 183 190 197 193 191 193 195 197 197 201 203 199 189 180 192 205 204 199 196 188 184 188 190 188 190 211 207 141 103 82 78 71 59 51 51 49 50 53 55 55 51
58 55 163 194 95 112 238 82 71 52 60 76 87 79 87 258 3 134 143 163 219 198 176 139 136 144 139 123 100 90 87 83 78 78 76 72 70 67 62 55 45 34 21 12 11 352 326 267 211 202 196 188 181 171 152 150 186 199 195 186 188 187 193 195 191 202 205 196 193 186 184 201 211 198 196 190 184 189 192 191 192 205 200 148 118 103 94 73 62 55 50 48 51 57 60 60 56
87 316 48 39 73 127 201 92 64 74 71 49 84 135 149 50 320 209 125 173 191 146 140 128 124 127 118 108 99 91 91 93 88 83 82 81 75 68 62 52 40 32 25 21 20 5 14 62 78 195 196 189 176 166 155 149 175 180 180 180 184 184 191 194 188 193 195 190 194 190 178 187 192 175 188 193 189 193 194 195 192 195 196 171 138 124 120 86 67 57 47 46 49 55 59 61 58
92 339 348 10 65 114 143 141 107 90 100 165 118 60 67 110 272 56 91 146 142 124 128 127 123 114 107 100 96 96 96 100 99 89 84 83 78 72 66 57 45 38 34 28 24 16 28 59 47 146 189 183 169 164 166 178 176 164 166 172 173 171 174 174 175 181 185 187 186 175 167 170 163 155 183 196 196 198 198 198 189 188 195 177 152 142 137 114 87 58 45 45 45 50 54 57 55
71 95 308 336 13 142 149 141 128 119 175 206 79 338 241 194 209 122 148 168 141 134 133 126 118 104 102 105 103 99 91 98 102 94 84 79 75 72 69 62 53 48 41 31 29 25 24 33 21 47 168 172 168 174 182 176 166 156 156 160 156 156 150 141 151 162 165 167 162 148 145 152 155 167 184 182 193 204 205 203 189 183 188 174 158 153 147 138 128 97 61 53 49 51 50 49 45
203 154 309 335 306 245 154 149 163 173 209 188 102 274 265 239 207 250 184 171 155 137 136 130 116 105 107 109 110 107 91 92 97 92 85 76 66 63 63 58 52 52 44 33 31 29 21 29 41 81 150 167 174 174 167 154 152 148 145 146 145 147 141 135 141 142 137 140 140 136 133 130 133 162 175 167 181 203 204 200 189 182 181 171 160 155 154 153 138 120 93 69 62 61 57 48 38
203 109 346 296 274 274 177 184 195 182 214 185 173 239 279 295 196 235 198 170 159 137 145 141 120 122 123 111 111 109 96 92 98 96 85 74 67 63 62 58 55 55 47 38 36 36 33 51 66 91 132 158 164 151 147 140 138 138 137 137 135 135 134 130 132 131 127 129 133 134 134 135 130 138 150 156 171 181 171 159 158 165 160 155 158 152 149 146 131 120 106 84 68 62 63 53 39
139 75 343 297 288 293 226 211 212 171 221 184 160 228 295 1 250 222 177 165 162 147 155 147 128 136 130 120 114 106 99 98 100 97 87 80 78 73 67 61 63 64 54 49 44 51 68 76 84 99 119 137 144 141 139 132 129 130 128 127 125 124 128 127 123 123 125 127 130 132 129 133 140 139 138 143 155 162 153 136 136 145 142 144 150 147 144 142 135 126 115 102 85 66 66 61 55
106 87 335 299 334 314 241 219 201 161 190 169 133 336 304 246 236 197 155 159 160 150 158 152 142 145 134 127 117 107 105 103 98 95 92 91 86 78 72 64 68 71 63 62 63 83 92 92 98 111 124 134 139 137 136 129 128 128 124 122 119 117 120 120 119 121 124 125 125 125 121 118 122 124 126 133 143 151 150 142 138 137 138 142 146 149 147 141 136 128 119 113 104 90 80 72 70
358 54 138 306 358 318 259 217 172 153 166 151 122 329 278 254 233 165 153 157 148 151 169 162 150 151 144 136 121 113 111 108 104 103 101 96 90 86 84 76 77 78 73 76 82 98 107 107 110 121 128 133 136 133 132 128 127 127 123 121 118 117 120 119 117 118 119 120 119 117 116 114 112 113 117 126 136 142 143 138 134 128 128 134 136 140 138 132 130 127 121 114 106 93 80 73 70
327 357 40 354 11 288 296 294 153 154 189 125 111 193 259 276 250 176 173 164 154 163 179 171 162 161 154 143 131 123 117 118 117 113 109 104 100 100 98 90 89 90 86 87 94 108 116 120 123 131 131 133 137 135 133 131 128 126 123 122 121 125 130 125 118 115 114 111 109 108 107 110 110 111 115 119 124 129 131 126 121 115 116 121 119 119 122 119 120 117 110 106 97 83 73 63 55
82 63 323 330 165 265 312 11 155 157 210 115 116 184 264 273 230 192 188 174 165 169 182 179 170 168 161 155 141 132 125 121 119 115 111 108 102 102 106 103 98 97 92 97 110 116 120 125 126 129 130 132 135 135 134 130 128 127 124 121 123 126 125 120 113 112 112 109 108 105 103 107 109 111 112 113 114 116 117 113 110 111 113 115 110 107 108 101 97 94 82 75 71 61 53 47 51
350 133 244 260 185 266 318 310 203 156 131 183 181 200 263 267 207 190 194 187 178 175 189 187 179 176 167 163 151 146 138 123 118 115 113 108 101 102 108 110 107 104 100 107 119 121 122 125 125 127 129 129 130 131 129 125 123 125 124 119 118 119 117 113 110 111 111 109 107 104 104 107 108 108 108 109 110 109 110 108 106 109 110 109 105 100 94 86 83 81 71 63 58 58 61 63 74
313 168 229 249 206 220 280 294 274 146 135 202 227 229 245 262 208 192 198 190 187 192 196 192 183 178 173 167 158 156 148 137 133 124 119 113 107 109 113 114 113 111 108 113 120 121 121 124 123 126 128 126 127 127 122 121 122 122 119 115 113 112 110 108 109 109 108 108 106 104 106 107 106 107 106 107 108 107 108 108 108 109 109 107 102 95 89 84 81 77 73 67 62 64 67 71 80
211 191 210 261 252 224 213 256 247 155 158 203 207 239 251 260 243 211 209 192 197 210 201 193 184 174 176 170 163 164 148 143 146 133 128 126 120 119 122 123 119 116 115 116 120 118 117 120 118 119 122 122 124 123 117 118 120 117 114 113 110 108 107 107 108 108 107 109 108 107 108 107 106 106 105 106 107 106 105 105 106 107 107 106 102 97 91 86 81 77 75 71 68 66 66 75 83
185 182 167 191 232 268 231 237 227 167 173 225 210 226 246 250 242 224 219 199 205 221 203 187 185 176 175 171 168 160 144 146 145 137 136 136 131 126 127 128 123 121 120 117 117 115 112 115 116 115 116 118 122 122 117 117 117 114 111 110 107 104 105 106 106 107 107 108 108 109 109 106 106 105 104 104 103 103 102 102 103 103 106 106 101 95 88 82 80 77 75 71 70 68 67 77 88
209 214 209 198 203 266 261 245 255 164 162 238 226 228 246 249 241 225 213 198 208 222 211 197 191 183 178 173 166 150 145 151 140 136 141 141 135 132 132 132 127 123 122 120 119 118 114 116 119 119 120 120 123 124 121 119 118 116 112 109 106 104 105 106 105 106 107 107 108 108 107 105 105 104 102 102 101 102 101 102 103 101 101 100 95 92 88 83 79 78 75 68 67 65 61 65 86
237 235 243 248 218 248 264 242 259 198 182 258 260 254 259 259 253 234 195 190 213 213 207 204 194 187 181 169 160 146 144 146 139 138 142 142 137 138 139 137 134 129 125 124 124 126 127 126 127 127 129 128 126 128 127 123 122 122 117 113 111 107 106 107 106 106 108 109 108 108 107 107 106 105 104 104 103 102 101 101 100 99 98 97 97 95 92 87 80 77 74 69 67 65 60 56 67
227 226 218 249 248 256 295 310 311 338 188 258 284 275 266 266 266 244 197 201 218 214 208 204 190 182 178 169 158 149 150 152 151 148 146 147 142 142 146 142 140 137 131 130 132 136 137 136 136 135 136 136 134 134 131 126 124 123 120 117 116 112 108 108 108 108 110 110 108 108 108 109 108 106 105 104 102 101 99 98 97 97 97 97 98 94 89 84 79 76 72 72 72 70 66 59 58
202 195 180 232 249 229 275 299 297 281 211 245 288 287 268 269 275 255 219 211 222 218 208 196 183 181 178 172 162 156 159 160 162 158 153 152 146 145 149 145 144 143 139 138 141 142 141 142 143 141 140 140 139 137 132 128 125 121 119 117 116 113 110 111 111 109 110 109 108 108 108 108 107 105 104 102 100 99 97 96 95 95 94 93 92 88 84 80 78 75 72 72 73 74 74 67 63
233 192 183 209 222 209 233 268 312 329 332 304 321 314 278 246 249 252 253 235 190 168 172 176 182 180 165 159 161 163 163 162 163 163 161 157 152 152 153 150 149 146 144 146 149 147 142 143 145 144 143 141 140 136 132 130 127 123 119 116 113 112 110 112 111 108 108 109 108 107 106 107 106 104 103 101 99 97 96 95 94 92 90 88 85 83 83 80 78 76 73 73 73 77 80 76 72
262 229 202 205 210 219 233 210 67 3 322 287 112 309 282 262 243 252 278 148 218 205 180 186 177 164 160 159 164 165 162 162 162 160 162 159 154 154 154 153 150 145 142 148 153 148 142 142 143 143 141 139 137 134 133 134 132 129 127 122 118 115 111 111 112 112 112 111 110 109 109 108 107 105 103 101 99 97 96 94 92 91 88 86 85 83 83 81 79 77 74 74 74 76 81 81 77
244 245 205 203 212 221 221 185 116 247 265 277 111 171 273 292 260 252 236 203 225 226 212 204 180 172 172 166 165 163 161 161 158 157 158 157 154 152 153 154 150 143 139 144 148 146 143 142 143 142 138 137 136 135 138 140 138 135 134 131 127 124 119 116 117 117 116 115 114 114 112 110 108 106 104 101 99 97 95 94 92 90 89 87 86 84 83 80 79 79 75 75 76 73 74 79 79
232 250 183 184 205 213 207 170 167 223 256 314 43 122 277 281 251 237 222 215 242 240 224 214 195 188 178 166 166 165 164 162 158 161 159 158 158 155 154 154 151 146 144 147 148 147 145 142 141 140 137 137 138 139 145 148 145 141 138 133 129 127 124 122 122 120 119 119 118 116 114 112 109 106 104 102 100 98 96 95 93 91 90 88 86 84 85 84 83 83 80 78 79 77 74 78 80
244 237 133 137 168 171 142 119 125 329 352 304 249 118 276 276 257 226 212 216 247 245 227 212 199 190 181 174 170 163 163 164 161 163 161 160 161 158 157 155 154 153 154 155 154 151 148 143 143 143 142 143 146 149 152 152 149 145 140 134 128 126 126 125 125 124 124 123 120 118 116 114 112 109 107 105 103 101 98 96 95 93 92 91 89 89 90 90 87 85 83 80 78 78 77 76 77
216 145 87 67 69 76 78 97 94 37 323 243 200 155 227 271 247 147 140 215 238 248 233 205 194 190 187 178 172 166 160 162 162 159 159 161 161 160 158 157 158 159 159 158 158 156 154 150 149 150 150 152 154 158 158 153 150 146 141 137 132 130 130 129 129 127 127 126 122 121 120 119 117 114 112 109 107 105 103 101 98 95 94 92 91 91 89 86 84 80 78 77 75 75 74 71 74
139 90 60 43 26 32 42 53 82 58 277 228 186 179 185 269 267 178 189 220 227 244 232 183 187 189 189 181 175 172 162 161 162 154 155 158 159 159 159 158 160 161 160 160 160 161 159 156 155 154 153 156 157 160 160 155 150 147 144 141 138 137 136 135 134 131 131 130 127 126 125 123 121 118 117 115 112 109 105 100 95 92 91 89 87 86 84 81 80 80 79 78 77 77 78 76 78
107 87 82 65 356 11 20 2 62 187 259 220 187 185 181 226 261 222 238 262 240 221 200 188 189 189 188 181 176 173 164 161 160 153 153 154 155 158 159 160 159 161 162 162 162 163 162 160 159 155 154 158 160 161 162 157 152 148 146 144 142 141 142 141 138 136 136 134 132 131 130 128 126 124 122 117 113 109 103 97 95 94 93 92 91 90 90 89 88 88 87 85 85 85 85 84 82
93 103 108 115 303 1 360 315 143 222 257 240 192 182 193 232 255 264 264 265 247 234 217 189 184 185 182 175 170 168 164 163 162 160 159 157 160 162 162 161 160 162 164 163 162 163 162 163 163 159 157 160 162 162 163 159 153 150 148 146 145 145 145 144 141 140 140 138 136 136 135 133 131 127 123 117 113 109 106 104 104 104 103 102 101 99 99 98 95 93 93 92 92 91 89 87 86
148 140 140 158 176 195 249 244 246 250 265 269 196 171 227 272 273 252 255 258 257 271 249 190 178 178 173 167 162 159 164 168 167 166 165 165 167 166 164 164 164 165 166 164 164 165 163 164 165 161 158 160 162 162 161 158 153 152 151 150 149 148 147 145 144 144 143 141 140 139 138 135 131 128 123 119 119 119 117 117 115 112 111 108 106 105 103 101 99 96 95 95 93 92 89 86 85
180 159 145 162 165 173 209 208 221 248 273 283 239 169 198 221 248 240 255 284 319 325 273 149 147 157 152 148 154 159 167 169 167 168 171 171 169 168 167 168 169 168 167 166 166 166 164 163 164 161 157 159 161 160 159 157 155 155 154 153 152 151 150 148 147 147 145 144 143 141 138 135 131 129 128 128 129 129 125 122 119 115 113 110 107 106 103 101 99 94 90 89 88 86 83 81 80
223 129 118 184 185 178 215 210 185 190 292 273 213 220 216 209 255 247 268 328 1 27 73 118 126 139 140 149 163 168 171 169 170 172 173 174 172 171 172 172 173 170 168 168 168 167 166 164 163 161 159 160 161 159 159 158 157 157 157 156 155 154 153 151 151 150 148 147 145 142 139 137 136 135 136 135 134 132 127 123 119 115 111 108 105 103 99 94 90 84 81 81 80 80 76 75 75
179 146 179 203 175 165 212 277 53 104 270 260 195 240 288 296 267 230 112 26 7 60 107 134 146 150 154 168 174 174 177 174 176 176 174 176 175 175 176 175 175 173 171 171 170 171 169 165 163 161 160 161 161 161 161 161 160 160 160 160 159 158 158 157 155 154 151 150 148 145 142 142 143 142 140 138 135 132 127 122 118 113 109 106 101 98 91 86 82 76 75 74 72 72 67 68 72
132 183 201 161 67 97 142 266 336 52 256 269 202 224 254 236 252 288 103 196 230 216 175 151 159 168 173 180 176 178 179 174 176 176 177 180 179 178 177 177 177 175 174 172 172 173 170 168 166 163 162 163 164 164 164 164 164 164 164 164 164 164 163 161 159 156 154 154 152 149 149 148 146 145 142 139 136 132 128 124 118 113 109 105 99 95 87 81 79 74 74 74 73 73 64 63 72
135 191 193 129 121 214 138 187 235 212 247 281 256 234 228 209 217 199 186 211 215 209 190 176 183 186 186 184 177 177 174 173 178 179 180 182 181 179 177 177 178 177 175 174 173 172 170 169 169 167 166 166 167 167 166 167 168 167 167 168 168 168 167 164 161 159 158 157 155 154 154 151 148 146 144 141 139 134 131 127 121 116 113 111 106 101 96 90 87 85 92 99 109 116 124 150 93
67 85 176 130 147 180 165 179 185 178 231 268 293 278 237 221 203 181 197 211 202 190 191 196 196 191 188 183 179 179 178 179 183 181 182 181 179 179 177 177 178 176 176 174 172 172 170 170 169 168 168 168 169 170 170 170 171 170 170 170 170 170 168 166 164 163 162 160 159 159 157 153 150 148 147 144 142 138 133 129 126 123 123 123 124 125 128 137 149 174 186 184 192 190 205 227 220
151 145 179 185 136 118 178 217 159 144 196 238 273 278 260 242 199 187 200 208 195 187 193 201 197 189 188 187 184 183 181 182 183 181 181 177 175 175 176 177 177 175 175 174 173 173 172 171 171 170 170 171 172 173 172 172 172 172 172 170 170 170 168 168 166 165 165 164 163 161 157 154 152 151 151 149 144 138 134 135 137 139 141 143 155 166 172 182 192 200 204 206 212 217 231 236 244
176 182 189 187 172 153 196 246 202 153 197 195 204 270 266 241 200 222 216 214 200 191 194 196 188 185 189 190 187 185 182 181 183 180 176 173 170 170 172 174 174 174 174 174 174 173 173 173 173 173 173 174 174 174 174 174 173 173 173 171 170 170 170 170 169 168 169 167 164 162 159 158 156 154 152 148 144 142 145 150 150 151 159 170 183 191 192 194 198 204 210 218 224 229 243 253 258